Location: Newark
(35.8833°N, 14.5000°E)
Time: 05:40:27
(UTC+00:00)

Altair - Pass Details

Date: 26 November 2019
Orbit: 1502 x 1682 km, 47.2° (Epoch: 05 December)

Event Time Altitude Azimuth Distance (km) Brightness Sun altitude
Rises 20:33:48 0° 173° (S) 4,740 - -56.9°
Reaches altitude 10° 20:39:09 10° 149° (SSE) 3,721 - -58.0°
Maximum altitude 20:43:08 13° 123° (ESE) 3,429 - -58.7°
Drops below altitude 10° 20:47:04 10° 97° (E) 3,679 - -59.5°
Sets 20:52:13 0° 73° (ENE) 4,645 - -60.4°
